Time,TemperatureF,DewpointF,PressureIn,WindDirection,WindDirectionDegrees,WindSpeedMPH,WindSpeedGustMPH,Humidity,HourlyPrecipIn,Conditions,Clouds,dailyrainin,SoftwareType,DateUTC
2015-08-31 00:04:00,68.1,66.0,29.99,West,270,0.0,0.0,94,0.00,,,0.00,weatherlink.com 1.10,2015-08-31 04:04:00,
2015-08-31 00:19:00,67.8,66.0,29.99,West,270,0.0,0.0,94,0.00,,,0.00,weatherlink.com 1.10,2015-08-31 04:19:00,
2015-08-31 00:34:00,67.7,66.0,29.99,West,270,0.0,0.0,95,0.00,,,0.00,weatherlink.com 1.10,2015-08-31 04:34:00,
2015-08-31 00:49:00,67.3,66.0,29.99,West,270,0.0,0.0,94,0.00,,,0.00,weatherlink.com 1.10,2015-08-31 04:49:00,
2015-08-31 01:04:00,66.9,66.0,29.99,West,270,0.0,0.0,95,0.00,,,0.00,weatherlink.com 1.10,2015-08-31 05:04:00,
2015-08-31 01:19:00,67.2,66.0,29.99,West,270,0.0,0.0,95,0.00,,,0.00,weatherlink.com 1.10,2015-08-31 05:19:00,
2015-08-31 01:34:00,67.2,66.0,29.99,West,270,0.0,0.0,95,0.00,,,0.00,weatherlink.com 1.10,2015-08-31 05:34:00,
2015-08-31 01:49:00,67.2,66.0,29.99,West,270,0.0,0.0,95,0.00,,,0.00,weatherlink.com 1.10,2015-08-31 05:49:00,
2015-08-31 02:04:00,66.8,65.0,29.99,West,270,0.0,0.0,95,0.00,,,0.00,weatherlink.com 1.10,2015-08-31 06:04:00,
2015-08-31 02:19:00,66.6,65.0,29.99,West,270,0.0,0.0,95,0.00,,,0.00,weatherlink.com 1.10,2015-08-31 06:19:00,
2015-08-31 02:34:00,66.7,66.0,29.98,West,270,0.0,0.0,96,0.00,,,0.00,weatherlink.com 1.10,2015-08-31 06:34:00,
2015-08-31 02:49:00,66.4,65.0,29.98,West,270,0.0,0.0,96,0.00,,,0.00,weatherlink.com 1.10,2015-08-31 06:49:00,
2015-08-31 03:04:00,66.4,65.0,29.98,West,270,0.0,0.0,96,0.00,,,0.00,weatherlink.com 1.10,2015-08-31 07:04:00,
2015-08-31 03:19:00,65.8,65.0,29.98,West,270,0.0,0.0,96,0.00,,,0.00,weatherlink.com 1.10,2015-08-31 07:19:00,
2015-08-31 03:34:00,65.6,65.0,29.98,West,270,0.0,0.0,96,0.01,,,0.01,weatherlink.com 1.10,2015-08-31 07:34:00,
2015-08-31 03:49:00,64.9,64.0,29.98,West,270,0.0,0.0,96,0.01,,,0.01,weatherlink.com 1.10,2015-08-31 07:49:00,
2015-08-31 04:04:00,64.7,64.0,29.98,West,270,0.0,0.0,96,0.01,,,0.01,weatherlink.com 1.10,2015-08-31 08:04:00,
2015-08-31 04:19:00,64.5,63.0,29.98,West,270,0.0,0.0,96,0.01,,,0.01,weatherlink.com 1.10,2015-08-31 08:19:00,
2015-08-31 04:34:00,65.0,64.0,29.98,West,270,0.0,1.0,96,0.00,,,0.01,weatherlink.com 1.10,2015-08-31 08:34:00,
2015-08-31 04:49:00,64.7,64.0,29.98,West,270,0.0,1.0,96,0.00,,,0.01,weatherlink.com 1.10,2015-08-31 08:49:00,
2015-08-31 05:04:00,64.0,63.0,29.98,West,270,0.0,0.0,96,0.00,,,0.01,weatherlink.com 1.10,2015-08-31 09:04:00,
2015-08-31 05:19:00,63.5,62.0,29.98,West,270,0.0,1.0,96,0.00,,,0.01,weatherlink.com 1.10,2015-08-31 09:19:00,
2015-08-31 05:34:00,62.9,62.0,29.99,West,270,0.0,0.0,96,0.00,,,0.01,weatherlink.com 1.10,2015-08-31 09:34:00,
2015-08-31 05:49:00,62.9,62.0,29.99,West,270,0.0,0.0,96,0.00,,,0.01,weatherlink.com 1.10,2015-08-31 09:49:00,
2015-08-31 06:05:00,62.8,62.0,29.99,West,270,0.0,1.0,97,0.00,,,0.01,weatherlink.com 1.10,2015-08-31 10:05:00,
2015-08-31 06:19:00,63.2,62.0,30.00,West,270,0.0,1.0,97,0.00,,,0.01,weatherlink.com 1.10,2015-08-31 10:19:00,
2015-08-31 06:34:00,62.9,62.0,30.00,West,270,0.0,0.0,97,0.00,,,0.01,weatherlink.com 1.10,2015-08-31 10:34:00,
2015-08-31 06:49:00,62.9,62.0,30.01,West,270,0.0,0.0,96,0.00,,,0.01,weatherlink.com 1.10,2015-08-31 10:49:00,
2015-08-31 07:04:00,62.8,62.0,30.01,West,270,0.0,0.0,97,0.00,,,0.01,weatherlink.com 1.10,2015-08-31 11:04:00,
2015-08-31 07:19:00,63.1,62.0,30.02,West,270,0.0,0.0,97,0.00,,,0.01,weatherlink.com 1.10,2015-08-31 11:19:00,
2015-08-31 07:34:00,62.7,62.0,30.02,West,270,0.0,0.0,96,0.00,,,0.01,weatherlink.com 1.10,2015-08-31 11:34:00,
2015-08-31 07:49:00,62.8,62.0,30.02,West,270,0.0,0.0,97,0.00,,,0.01,weatherlink.com 1.10,2015-08-31 11:49:00,
2015-08-31 08:04:00,63.1,62.0,30.03,West,270,0.0,1.0,97,0.00,,,0.01,weatherlink.com 1.10,2015-08-31 12:04:00,
2015-08-31 08:19:00,64.4,64.0,30.03,West,270,1.0,2.0,97,0.00,,,0.01,weatherlink.com 1.10,2015-08-31 12:19:00,
2015-08-31 08:34:00,65.5,65.0,30.03,West,270,0.0,1.0,97,0.00,,,0.01,weatherlink.com 1.10,2015-08-31 12:34:00,
2015-08-31 08:49:00,67.3,67.0,30.03,West,270,0.0,1.0,97,0.00,,,0.01,weatherlink.com 1.10,2015-08-31 12:49:00,
2015-08-31 09:04:00,68.3,68.0,30.04,West,270,0.0,1.0,97,0.00,,,0.01,weatherlink.com 1.10,2015-08-31 13:04:00,
2015-08-31 09:20:00,69.6,69.0,30.04,West,270,0.0,2.0,97,0.00,,,0.01,weatherlink.com 1.10,2015-08-31 13:20:00,
2015-08-31 09:35:00,70.1,69.0,30.05,West,270,2.0,3.0,96,0.00,,,0.01,weatherlink.com 1.10,2015-08-31 13:35:00,
2015-08-31 09:50:00,70.5,69.0,30.05,West,270,1.0,2.0,96,0.00,,,0.01,weatherlink.com 1.10,2015-08-31 13:50:00,
2015-08-31 10:20:00,73.4,70.0,30.05,NW,316,1.0,4.0,88,0.00,,,0.01,weatherlink.com 1.10,2015-08-31 14:20:00,
2015-08-31 10:35:00,74.7,70.0,30.05,WNW,288,1.0,4.0,86,0.00,,,0.01,weatherlink.com 1.10,2015-08-31 14:35:00,
2015-08-31 10:50:00,76.1,71.0,30.05,West,278,2.0,4.0,83,0.00,,,0.01,weatherlink.com 1.10,2015-08-31 14:50:00,
2015-08-31 11:05:00,78.1,72.0,30.06,West,278,1.0,3.0,80,0.00,,,0.01,weatherlink.com 1.10,2015-08-31 15:05:00,
2015-08-31 11:20:00,79.5,72.0,30.06,West,275,0.0,2.0,77,0.00,,,0.01,weatherlink.com 1.10,2015-08-31 15:20:00,
2015-08-31 11:35:00,78.3,71.0,30.05,WNW,284,3.0,7.0,77,0.00,,,0.01,weatherlink.com 1.10,2015-08-31 15:35:00,
2015-08-31 11:51:00,78.7,71.0,30.05,WNW,294,1.0,8.0,77,0.00,,,0.01,weatherlink.com 1.10,2015-08-31 15:51:00,
2015-08-31 12:05:00,78.5,72.0,30.04,West,277,4.0,8.0,79,0.00,,,0.01,weatherlink.com 1.10,2015-08-31 16:05:00,
2015-08-31 12:20:00,79.4,71.0,30.05,WSW,255,1.0,7.0,76,0.00,,,0.01,weatherlink.com 1.10,2015-08-31 16:20:00,
2015-08-31 12:35:00,81.2,73.0,30.04,West,261,2.0,4.0,76,0.00,,,0.01,weatherlink.com 1.10,2015-08-31 16:35:00,
2015-08-31 12:50:00,81.3,73.0,30.04,WSW,248,2.0,8.0,76,0.00,,,0.01,weatherlink.com 1.10,2015-08-31 16:50:00,
2015-08-31 13:05:00,82.5,73.0,30.04,WSW,238,4.0,5.0,74,0.00,,,0.01,weatherlink.com 1.10,2015-08-31 17:05:00,
2015-08-31 13:21:00,81.9,72.0,30.03,West,263,1.0,6.0,73,0.00,,,0.01,weatherlink.com 1.10,2015-08-31 17:21:00,
2015-08-31 13:36:00,81.4,71.0,30.03,SW,229,0.0,6.0,71,0.00,,,0.01,weatherlink.com 1.10,2015-08-31 17:36:00,
2015-08-31 13:51:00,83.8,72.0,30.02,WSW,254,1.0,4.0,68,0.00,,,0.01,weatherlink.com 1.10,2015-08-31 17:51:00,
2015-08-31 14:06:00,84.8,72.0,30.02,WNW,294,1.0,5.0,66,0.00,,,0.01,weatherlink.com 1.10,2015-08-31 18:06:00,
2015-08-31 14:36:00,86.3,72.0,30.01,West,279,2.0,4.0,63,0.00,,,0.01,weatherlink.com 1.10,2015-08-31 18:36:00,
2015-08-31 14:51:00,87.1,71.0,30.01,WNW,288,0.0,7.0,60,0.00,,,0.01,weatherlink.com 1.10,2015-08-31 18:51:00,
2015-08-31 15:06:00,88.1,73.0,30.00,West,273,3.0,6.0,61,0.00,,,0.01,weatherlink.com 1.10,2015-08-31 19:06:00,
2015-08-31 15:21:00,89.2,73.0,30.00,West,277,2.0,4.0,59,0.00,,,0.01,weatherlink.com 1.10,2015-08-31 19:21:00,
2015-08-31 15:36:00,88.2,73.0,30.00,West,277,1.0,8.0,60,0.00,,,0.01,weatherlink.com 1.10,2015-08-31 19:36:00,
2015-08-31 15:51:00,89.9,74.0,29.99,WNW,293,1.0,3.0,60,0.00,,,0.01,weatherlink.com 1.10,2015-08-31 19:51:00,
2015-08-31 16:06:00,90.6,73.0,29.99,WNW,293,1.0,4.0,57,0.00,,,0.01,weatherlink.com 1.10,2015-08-31 20:06:00,
2015-08-31 16:22:00,90.2,72.0,29.98,West,275,2.0,7.0,56,0.00,,,0.01,weatherlink.com 1.10,2015-08-31 20:22:00,
2015-08-31 16:37:00,90.6,73.0,29.98,West,275,0.0,3.0,56,0.00,,,0.01,weatherlink.com 1.10,2015-08-31 20:37:00,
2015-08-31 16:52:00,90.3,72.0,29.97,West,277,2.0,7.0,56,0.00,,,0.01,weatherlink.com 1.10,2015-08-31 20:52:00,
2015-08-31 17:07:00,90.7,72.0,29.97,West,277,3.0,6.0,55,0.00,,,0.01,weatherlink.com 1.10,2015-08-31 21:07:00,
2015-08-31 17:22:00,90.5,72.0,29.97,West,276,0.0,3.0,54,0.00,,,0.01,weatherlink.com 1.10,2015-08-31 21:22:00,
2015-08-31 17:37:00,90.1,72.0,29.97,WSW,254,1.0,9.0,55,0.00,,,0.01,weatherlink.com 1.10,2015-08-31 21:37:00,
2015-08-31 17:52:00,89.1,71.0,29.97,WSW,240,0.0,5.0,56,0.00,,,0.01,weatherlink.com 1.10,2015-08-31 21:52:00,
2015-08-31 18:07:00,90.1,72.0,29.97,WSW,240,0.0,2.0,56,0.00,,,0.01,weatherlink.com 1.10,2015-08-31 22:07:00,
2015-08-31 18:22:00,89.7,71.0,29.97,WSW,240,2.0,4.0,55,0.00,,,0.01,weatherlink.com 1.10,2015-08-31 22:22:00,
2015-08-31 18:37:00,88.6,71.0,29.97,WSW,240,0.0,1.0,57,0.00,,,0.01,weatherlink.com 1.10,2015-08-31 22:37:00,
2015-08-31 18:52:00,88.3,73.0,29.98,WSW,240,1.0,1.0,60,0.00,,,0.01,weatherlink.com 1.10,2015-08-31 22:52:00,
2015-08-31 19:07:00,86.5,72.0,29.98,WSW,240,0.0,1.0,63,0.00,,,0.01,weatherlink.com 1.10,2015-08-31 23:07:00,
2015-08-31 19:22:00,84.1,72.0,29.98,WSW,240,0.0,1.0,66,0.00,,,0.01,weatherlink.com 1.10,2015-08-31 23:22:00,
2015-08-31 19:37:00,82.6,71.0,29.98,WSW,240,0.0,0.0,69,0.00,,,0.01,weatherlink.com 1.10,2015-08-31 23:37:00,
2015-08-31 19:53:00,81.2,71.0,29.98,WSW,240,0.0,0.0,72,0.00,,,0.01,weatherlink.com 1.10,2015-08-31 23:53:00,
2015-08-31 20:07:00,79.9,71.0,29.98,WSW,240,0.0,0.0,74,0.00,,,0.01,weatherlink.com 1.10,2015-09-01 00:07:00,
2015-08-31 20:22:00,78.1,71.0,29.98,WSW,240,0.0,0.0,78,0.00,,,0.01,weatherlink.com 1.10,2015-09-01 00:22:00,
2015-08-31 20:37:00,76.9,70.0,29.99,WSW,240,0.0,0.0,80,0.00,,,0.01,weatherlink.com 1.10,2015-09-01 00:37:00,
2015-08-31 20:52:00,75.8,70.0,29.99,WSW,240,0.0,0.0,83,0.00,,,0.01,weatherlink.com 1.10,2015-09-01 00:52:00,
2015-08-31 21:07:00,75.0,70.0,30.00,WSW,240,0.0,0.0,85,0.00,,,0.01,weatherlink.com 1.10,2015-09-01 01:07:00,
2015-08-31 21:22:00,73.9,70.0,30.00,WSW,240,0.0,0.0,86,0.00,,,0.01,weatherlink.com 1.10,2015-09-01 01:22:00,
2015-08-31 21:37:00,73.1,69.0,30.00,WSW,240,0.0,0.0,88,0.00,,,0.01,weatherlink.com 1.10,2015-09-01 01:37:00,
2015-08-31 21:52:00,72.8,70.0,30.00,WSW,240,0.0,0.0,89,0.00,,,0.01,weatherlink.com 1.10,2015-09-01 01:52:00,
2015-08-31 22:07:00,71.9,69.0,30.00,WSW,240,0.0,0.0,90,0.00,,,0.01,weatherlink.com 1.10,2015-09-01 02:07:00,
2015-08-31 22:22:00,71.5,69.0,30.01,WSW,240,0.0,1.0,91,0.00,,,0.01,weatherlink.com 1.10,2015-09-01 02:22:00,
2015-08-31 22:37:00,71.0,68.0,30.01,WSW,240,0.0,0.0,91,0.00,,,0.01,weatherlink.com 1.10,2015-09-01 02:37:00,
2015-08-31 22:52:00,70.1,68.0,30.01,WSW,240,0.0,0.0,92,0.00,,,0.01,weatherlink.com 1.10,2015-09-01 02:52:00,
2015-08-31 23:07:00,69.4,67.0,30.01,WSW,240,0.0,0.0,93,0.00,,,0.01,weatherlink.com 1.10,2015-09-01 03:07:00,
2015-08-31 23:22:00,69.0,67.0,30.01,WSW,240,0.0,0.0,94,0.00,,,0.01,weatherlink.com 1.10,2015-09-01 03:22:00,
2015-08-31 23:37:00,68.9,67.0,30.01,WSW,240,0.0,0.0,94,0.00,,,0.01,weatherlink.com 1.10,2015-09-01 03:37:00,